Weather History for KTVR - March, 2013

Change the Weather History Date:

Monday, March 25, 2013

  Actual Average Record
Temperature  
Mean Temperature 45 °F 59 °F  
Max Temperature 57 °F 71 °F 83 °F (1955)
Min Temperature 33 °F 48 °F 28 °F (1966)
Degree Days  
Heating Degree Days 20 7  
Month to date heating degree days 316 229  
Since 1 July heating degree days 2086 2205  
Cooling Degree Days 0 1  
Month to date cooling degree days 7 22  
Year to date cooling degree days 25 31  
Moisture  
Dew Point 23 °F    
Average Humidity 50    
Maximum Humidity 75    
Minimum Humidity 24    
Precipitation  
Precipitation 0.00 in 0.17 in 3.75 in (2009)
Month to date precipitation 2.16 4.09  
Year to date precipitation 24.99 14.43  
Sea Level Pressure  
Sea Level Pressure 30.22 in    
Wind  
Wind Speed 11 mph (NW)    
Max Wind Speed 21 mph    
Max Gust Speed 30 mph    
Visibility 10 miles    
Events      
T = Trace of Precipitation, MM = Missing Value Source: NWS Daily Summary

Daily Weather History Graph

Daily Weather History Graph

Search for Another Location

Airport or City:

Trip Planner

Search our weather history database for the weather conditions in past years. The results will help you decide how hot, cold, wet, or windy it might be!

Date:

Astronomy

Mar. 25, 2013 Rise Set
Actual Time 7:01 AM CDT 7:19 PM CDT
Civil Twilight 6:36 AM CDT 7:43 PM CDT
Nautical Twilight 6:07 AM CDT 8:12 PM CDT
Astronomical Twilight 5:38 AM CDT 8:41 PM CDT
Moon 5:54 PM CDT (3/25) 5:39 AM CDT (3/25)
Length of Visible Light 13h 07m
Length of Day
12h 18m
Waxing Gibbous, 96% of the Moon is Illuminated
Mar 25
Waxing Gibbous
Mar 27
Full
Apr 2
Last Quarter
Apr 10
New
Apr 18
First Quarter

Hourly Weather History & Observations

Time (CDT) Temp. Windchill Dew Point Humidity Pressure Visibility Wind Dir Wind Speed Gust Speed Precip Events Conditions
12:53 AM 39.0 °F 33.4 °F 28.0 °F 65% 30.12 in 10.0 mi NW 8.1 mph - N/A   Clear
1:53 AM 37.9 °F 31.5 °F 28.0 °F 68% 30.12 in 10.0 mi NNW 9.2 mph 17.3 mph N/A   Clear
2:53 AM 37.0 °F 30.4 °F 26.1 °F 65% 30.13 in 10.0 mi NNW 9.2 mph - N/A   Clear
3:53 AM 34.0 °F 28.0 °F 27.0 °F 75% 30.14 in 10.0 mi WNW 6.9 mph - N/A   Clear
4:53 AM 34.0 °F 28.0 °F 26.1 °F 73% 30.16 in 10.0 mi NW 6.9 mph - N/A   Clear
5:53 AM 33.1 °F 26.1 °F 26.1 °F 75% 30.17 in 10.0 mi WNW 8.1 mph - N/A   Clear
6:53 AM 33.1 °F 26.9 °F 24.1 °F 70% 30.20 in 10.0 mi NW 6.9 mph - N/A   Clear
7:53 AM 34.0 °F 26.6 °F 25.0 °F 70% 30.22 in 10.0 mi NW 9.2 mph - N/A   Clear
8:53 AM 37.9 °F 30.9 °F 25.0 °F 60% 30.25 in 10.0 mi NW 10.4 mph 17.3 mph N/A   Clear
9:53 AM 39.9 °F 32.5 °F 23.0 °F 51% 30.27 in 10.0 mi NW 12.7 mph 21.9 mph N/A   Clear
10:53 AM 44.1 °F 37.1 °F 23.0 °F 43% 30.28 in 10.0 mi NW 15.0 mph 21.9 mph N/A   Clear
11:53 AM 46.0 °F 40.6 °F 24.1 °F 42% 30.27 in 10.0 mi NW 11.5 mph 21.9 mph N/A   Clear
1:53 PM 52.0 °F - 23.0 °F 32% 30.23 in 10.0 mi NW 13.8 mph 24.2 mph N/A   Clear
2:53 PM 54.0 °F - 23.0 °F 30% 30.20 in 10.0 mi WNW 15.0 mph 25.3 mph N/A   Clear
3:53 PM 57.0 °F - 21.9 °F 26% 30.18 in 10.0 mi WNW 16.1 mph 25.3 mph N/A   Clear
4:53 PM 55.9 °F - 21.0 °F 26% 30.18 in 10.0 mi NW 12.7 mph 25.3 mph N/A   Clear
5:53 PM 53.1 °F - 21.0 °F 29% 30.19 in 10.0 mi NNW 11.5 mph 24.2 mph N/A   Clear
6:53 PM 50.0 °F - 18.0 °F 28% 30.21 in 10.0 mi NW 15.0 mph 20.7 mph N/A   Clear
7:53 PM 48.0 °F - 19.0 °F 32% 30.24 in 10.0 mi NNW 9.2 mph - N/A   Clear
8:53 PM 46.0 °F 40.2 °F 21.0 °F 37% 30.27 in 10.0 mi NNW 12.7 mph 17.3 mph N/A   Clear
9:53 PM 44.1 °F 39.0 °F 21.9 °F 42% 30.30 in 10.0 mi NNW 9.2 mph 17.3 mph N/A   Clear
10:53 PM 43.0 °F 38.2 °F 21.0 °F 42% 30.33 in 10.0 mi NNW 8.1 mph 18.4 mph N/A   Clear
11:53 PM 39.9 °F 32.5 °F 24.1 °F 53% 30.35 in 10.0 mi North 12.7 mph 18.4 mph N/A   Clear